Temperature
18 18 18 18 17 17 17 17 17 17 17 17 17 16 16 16 16 16 16 16 16 16 16 16 16 16 16 15 15 15 15 15 15 14 14 14 14 14 14 14 13 13 13
18 18 18 18 18 17 17 17 17 17 17 17 17 16 16 16 16 16 16 16 16 16 16 16 15 15 15 15 15 15 15 14 14 14 14 13 13 13 13 13 13 13 13
18 18 18 18 17 17 17 17 17 17 16 16 16 16 16 16 16 15 15 15 15 15 15 15 15 15 15 15 15 14 14 14 14 14 13 13 13 13 13 13 13 13 12
18 18 18 18 17 17 17 17 16 16 16 16 16 16 16 15 15 15 15 15 15 15 15 15 15 15 14 14 14 14 14 14 13 13 13 13 13 12 12 12 12 12 12
18 18 18 17 17 17 17 17 16 16 16 16 16 15 15 15 15 15 15 15 15 15 14 14 14 14 14 14 14 14 14 13 13 13 12 12 12 12 12 12 12 11 11
18 18 18 17 17 17 17 16 16 16 16 15 15 15 15 15 15 14 14 14 14 14 14 14 14 13 13 13 13 13 13 13 13 12 12 12 12 11 11 11 11 11 11
18 18 17 17 17 17 16 16 16 16 15 15 15 15 15 14 14 14 14 14 14 14 13 13 13 13 13 13 13 13 12 12 12 12 12 12 11 11 11 11 11 11 10
18 18 17 17 16 16 16 16 15 15 15 15 15 15 14 14 14 14 14 14 13 13 13 13 13 13 12 12 12 12 12 12 12 11 11 11 11 11 11 11 11 10 10
18 17 17 17 16 16 16 15 15 15 15 14 14 14 14 14 14 14 14 13 13 13 12 12 12 12 12 12 12 12 12 11 11 11 11 11 11 10 10 10 10 10 10
18 17 17 16 16 16 15 15 15 15 14 14 14 14 14 13 13 13 13 13 13 13 12 12 12 12 12 12 11 11 11 11 11 11 11 10 10 10 10 10 10 9 9
17 17 16 16 16 15 15 15 14 14 14 14 13 13 13 13 13 13 13 13 12 12 12 12 11 11 11 11 11 11 11 10 10 10 10 10 10 10 10 9 9 9 9
17 16 16 16 15 15 15 14 14 14 14 13 13 13 13 13 12 12 12 12 12 12 12 11 11 11 11 11 10 10 10 10 10 10 10 10 9 9 9 9 9 9 9
16 16 16 15 15 15 14 14 14 13 13 13 13 13 12 12 12 12 12 12 11 11 11 11 11 10 10 10 10 10 10 10 10 9 9 9 9 9 9 9 9 8 8
16 15 15 15 14 14 14 14 13 13 13 13 13 12 12 12 12 12 11 11 11 11 11 10 10 10 10 10 10 9 9 9 9 9 9 9 9 9 9 8 8 8 8
15 15 15 14 14 14 13 13 13 13 12 12 12 12 12 12 11 11 11 11 11 10 10 10 10 10 9 9 9 9 9 9 9 9 8 8 8 8 8 8 8 8 8
15 14 14 14 14 13 13 13 12 12 12 12 12 12 11 11 11 11 11 10 10 10 10 10 9 9 9 9 9 9 9 8 8 8 8 8 8 8 8 8 8 8 8
14 14 14 13 13 13 13 12 12 12 11 11 11 11 11 11 11 10 10 10 10 10 9 9 9 9 9 8 8 8 8 8 8 8 8 8 8 8 8 8 7 7 7
14 14 13 13 13 12 12 12 12 12 11 11 11 11 10 10 10 10 10 9 9 9 9 9 9 8 8 8 8 8 8 8 8 8 8 7 7 7 7 7 7 7 7
13 13 13 13 12 12 12 12 11 11 11 11 10 10 10 10 10 10 9 9 9 9 8 8 8 8 8 8 8 8 8 8 8 7 7 7 7 7 7 7 7 7 7
13 12 12 12 12 12 12 11 11 11 10 10 10 10 10 9 9 9 9 9 9 9 8 8 8 8 8 8 8 8 7 7 7 7 7 7 7 7 7 7 6 6 6
12 12 12 12 12 11 11 11 11 10 10 10 10 9 9 9 9 9 9 9 9 8 8 8 8 8 8 7 7 7 7 7 7 7 6 6 6 6 6 6 6 6 6
12 12 12 11 11 11 11 11 10 10 10 10 9 9 9 9 9 9 9 8 8 8 8 8 7 7 7 7 7 7 7 6 6 6 6 6 6 6 6 5 5 5 5
12 11 11 11 11 11 11 10 10 10 10 10 9 9 9 9 9 8 8 8 8 8 7 7 7 7 7 7 6 6 6 6 6 6 6 5 5 5 5 5 5 5 5
11 11 11 11 11 11 10 10 10 10 9 9 9 9 9 9 8 8 8 8 8 7 7 7 7 7 6 6 6 6 6 6 5 5 5 5 5 5 5 4 4 4 4
11 11 11 10 10 10 10 10 10 9 9 9 9 8 8 8 8 8 8 8 7 7 7 7 7 6 6 6 6 5 5 5 5 5 5 5 5 4 4 4 4 4 4
10 10 10 10 10 10 10 10 9 9 9 9 8 8 8 8 8 8 7 7 7 7 7 6 6 6 6 6 5 5 5 5 5 5 5 4 4 4 4 4 4 4 4
Wind_Speed
2 2 2 2 2 1 1 1 0 0 1 1 1 0 0 0 0 1 1 1 1 1 1 1 2 1 1 1 2 2 2 2 2 1 1 1 1 2 3 3 3 3 4
3 2 2 1 2 2 1 1 1 1 1 1 1 1 1 1 0 0 1 1 1 0 0 1 1 1 1 1 2 2 2 2 3 3 1 1 1 2 2 2 3 3 4
3 3 2 1 2 2 1 1 2 1 1 2 2 2 1 2 1 1 1 1 0 0 1 1 1 1 1 1 2 2 2 2 2 3 2 1 1 1 2 2 2 3 3
3 3 2 1 1 1 1 1 2 2 2 2 2 2 2 2 2 1 2 1 1 2 2 2 1 1 2 2 2 2 2 3 3 3 2 1 1 1 1 1 1 1 1
4 3 2 2 1 2 2 2 2 2 2 2 3 3 2 2 1 1 1 1 2 2 2 2 2 2 2 2 2 3 3 3 3 3 2 1 1 1 1 1 1 0 1
4 3 2 2 2 2 2 2 2 2 2 3 2 2 2 2 2 2 2 2 2 2 2 2 2 3 4 4 4 4 4 4 3 3 2 2 2 1 1 1 1 1 0
4 3 2 2 2 2 2 2 2 2 2 3 2 2 2 2 2 2 2 2 2 2 1 1 2 2 3 3 5 6 5 5 3 3 3 2 2 2 3 2 1 1 1
3 3 2 3 3 3 3 3 2 2 2 2 2 2 2 3 3 2 2 2 2 2 2 1 2 2 2 3 4 4 4 3 2 2 2 1 1 2 3 3 2 1 1
3 3 2 3 3 3 3 2 2 2 2 2 2 2 2 3 4 3 3 3 3 3 3 3 2 2 3 4 5 4 3 2 3 4 4 3 2 3 4 3 3 2 0
3 3 3 3 4 3 3 2 2 3 2 2 3 3 3 3 4 4 4 3 3 3 3 4 4 4 4 5 4 3 3 1 2 3 4 4 3 3 4 3 3 2 1
3 3 3 3 3 3 3 2 2 3 3 3 3 3 3 4 4 4 4 3 2 2 2 2 2 4 4 5 4 3 2 2 2 2 2 3 3 2 1 1 2 2 2
4 4 3 3 3 3 4 3 3 3 4 3 3 3 3 3 4 3 4 3 3 2 1 1 2 4 5 5 4 3 3 3 3 3 3 2 2 2 1 1 1 1 2
5 4 3 3 3 3 4 4 3 3 3 2 2 1 2 3 3 4 4 3 3 2 2 3 3 4 4 4 4 5 4 3 2 2 2 1 1 1 1 1 2 1 1
5 4 3 4 4 4 3 3 3 2 2 1 1 0 1 2 2 3 3 2 3 3 2 3 4 5 4 4 4 3 3 2 2 1 1 1 2 1 2 1 1 2 2
4 4 3 3 4 3 3 3 2 1 1 1 1 1 1 0 2 1 1 1 1 2 2 3 3 3 3 3 3 2 2 2 2 1 1 1 1 1 1 1 1 1 1
4 3 3 3 3 3 3 3 6 4 3 3 2 2 1 0 0 1 2 3 3 4 4 2 2 2 2 1 1 2 2 1 1 1 1 1 1 1 1 1 1 0 1
4 3 3 2 3 3 3 3 2 4 6 6 4 3 1 1 2 2 3 4 4 4 3 2 1 1 1 1 1 1 1 1 1 1 1 1 1 1 1 1 1 1 2
4 3 3 3 3 3 3 3 3 3 2 2 3 3 3 2 3 3 4 5 3 3 2 1 1 1 1 1 1 1 1 1 1 1 1 1 1 1 1 2 2 2 2
3 3 2 2 3 3 3 3 2 2 2 1 1 3 4 4 4 4 3 2 2 1 0 0 1 1 1 1 1 1 1 1 1 1 1 1 1 2 2 2 2 2 2
2 3 3 3 3 3 3 3 2 2 2 1 1 0 1 2 2 2 1 1 1 0 0 0 1 1 1 1 1 1 1 1 1 1 2 2 2 2 2 3 3 2 2
3 3 3 3 3 3 3 3 3 2 2 1 0 0 2 1 1 1 0 0 0 1 1 0 0 0 0 0 0 1 1 1 1 2 2 2 2 2 2 2 2 2 3
3 3 3 3 3 3 3 2 2 2 2 2 0 0 1 1 1 0 0 1 1 1 1 1 1 1 1 1 1 1 1 2 2 2 2 2 2 2 2 2 2 2 3
3 3 3 2 2 3 3 2 2 2 2 2 2 1 1 0 0 1 1 1 1 1 1 1 1 0 0 0 1 1 1 2 2 2 3 2 2 2 2 2 3 3 3
3 3 3 3 3 3 3 3 2 2 2 2 1 1 1 1 1 1 1 1 1 1 1 1 1 1 0 1 1 1 1 2 3 3 3 3 2 2 2 2 3 4 4
3 3 3 3 3 3 3 3 3 2 2 2 1 1 1 1 1 1 1 1 1 1 1 1 1 1 1 1 1 2 3 3 3 3 2 2 2 2 2 3 3 4 4
3 3 3 3 3 3 3 3 3 2 2 2 1 1 1 2 2 2 1 1 1 1 1 1 1 1 1 1 1 2 3 4 4 3 2 1 1 1 2 2 3 3 3
Wind_Direction
177 174 160 156 163 158 158 173 164 21 37 32 12 357 6 166 179 181 201 190 210 245 225 199 222 215 203 196 186 190 189 176 195 187 135 122 128 111 88 85 84 91 102
164 149 153 126 115 126 124 109 86 55 34 48 58 59 44 35 53 166 271 230 214 247 242 175 244 218 203 191 179 186 185 180 174 177 174 170 163 142 115 95 84 87 93
141 139 127 121 125 128 122 104 88 71 48 46 60 56 40 42 50 50 43 71 81 65 93 131 207 172 197 184 164 166 170 169 161 166 176 165 120 105 93 81 75 78 95
127 128 134 151 156 148 127 102 97 95 76 54 55 56 54 59 56 51 60 72 71 66 80 83 92 160 183 176 173 161 152 148 145 146 143 126 107 83 110 114 77 44 54
134 141 159 150 133 118 105 99 94 88 85 79 70 55 48 60 57 67 77 84 95 86 72 68 71 88 118 149 153 152 149 145 141 140 137 127 136 152 196 183 177 133 5
149 165 158 143 135 121 106 98 95 86 76 73 71 66 48 38 47 64 93 87 80 91 84 62 57 60 69 85 101 111 129 143 153 153 159 173 199 209 187 178 166 175 224
157 158 150 153 145 134 112 99 98 93 85 75 64 68 52 25 37 49 86 104 91 75 78 75 63 54 73 88 83 83 82 85 113 150 157 178 186 187 176 179 194 215 231
154 157 164 159 149 131 116 111 101 91 87 76 66 60 53 25 30 53 83 93 83 64 58 75 90 69 81 105 101 88 76 62 79 110 142 166 200 193 184 180 166 119 80
158 166 165 156 144 135 126 123 123 103 77 59 58 58 53 23 26 48 89 86 75 54 45 60 86 87 79 104 111 107 87 56 66 91 103 99 106 131 141 127 129 134 125
168 159 145 142 145 146 140 131 114 110 107 83 61 50 52 37 27 47 74 88 75 59 51 50 56 76 80 95 110 116 109 70 76 76 70 64 78 119 145 161 165 163 146
138 120 117 126 140 140 130 119 110 106 96 80 72 51 44 38 37 54 66 83 86 72 59 48 41 64 79 86 90 95 111 104 87 77 66 55 56 61 92 158 173 176 187
122 118 118 117 123 122 118 111 105 108 101 83 73 50 33 28 34 39 59 69 86 91 70 44 42 71 80 78 76 65 74 84 79 68 60 44 27 13 358 1 170 185 216
120 120 118 108 97 111 119 119 111 105 108 94 81 55 19 18 19 26 38 54 71 77 64 65 64 71 81 74 55 61 74 76 75 67 52 18 343 340 3 17 35 59 22
123 123 120 115 102 91 93 104 112 117 122 121 108 73 20 20 14 12 22 45 59 65 53 57 68 68 67 60 50 50 51 60 77 63 11 2 12 26 28 20 14 9 11
120 123 119 119 122 109 88 71 91 83 156 173 186 170 157 321 306 305 106 83 89 96 85 64 59 56 54 45 41 39 35 38 37 23 22 19 12 11 4 7 17 14 2
131 135 134 132 127 124 115 78 51 54 54 76 93 127 129 296 357 99 95 87 84 101 94 79 71 64 56 35 22 10 9 4 348 350 354 334 322 328 343 358 358 321 304
143 147 142 140 140 138 138 136 110 55 56 64 70 76 91 73 71 87 91 84 77 98 88 80 75 49 16 7 358 344 328 327 331 342 333 326 327 328 327 318 311 301 299
138 144 146 156 156 154 156 152 142 130 95 39 33 44 49 61 72 82 91 92 69 66 64 56 26 9 4 348 338 340 341 1 15 1 347 333 326 315 304 297 295 297 299
135 141 148 153 150 146 143 140 138 134 124 93 49 36 46 65 74 79 97 88 92 77 50 356 352 340 330 327 328 333 341 356 354 340 322 313 306 299 288 287 290 292 293
130 138 140 145 137 135 139 145 148 146 137 126 106 56 65 71 67 55 56 69 84 74 275 257 283 280 291 325 343 342 336 337 334 318 309 304 292 279 280 286 284 283 283
135 137 131 132 142 149 153 159 161 159 158 156 187 236 145 130 142 127 107 113 193 232 248 241 255 266 282 296 297 314 314 310 308 304 303 302 297 289 286 282 285 287 289
141 141 139 142 145 146 148 154 160 166 173 167 144 58 144 125 147 147 220 240 237 236 230 208 214 230 249 253 248 265 282 286 290 294 294 292 291 290 288 284 286 289 289
138 137 135 136 137 136 135 140 151 159 167 171 168 156 149 145 231 252 248 246 235 231 216 194 208 234 276 280 261 250 263 274 275 272 277 282 285 284 283 283 287 292 290
138 143 144 144 139 143 147 149 156 160 162 169 175 188 206 210 227 248 244 238 226 209 193 177 181 190 265 354 347 311 298 300 295 275 264 266 278 287 286 291 289 294 291
140 141 142 146 151 155 154 156 161 167 173 182 189 204 217 217 223 239 249 239 204 190 194 188 178 191 243 318 3 355 341 336 331 312 276 259 268 284 294 295 299 302 301
148 147 147 149 158 165 166 169 178 190 201 206 203 213 223 223 226 229 229 215 200 203 210 213 215 212 239 295 329 339 344 345 340 335 314 285 289 312 322 316 316 311 313
Height
1538 1538 1538 1538 1539 1539 1539 1539 1539 1538 1538 1538 1538 1538 1537 1537 1537 1537 1536 1536 1536 1535 1535 1535 1535 1536 1536 1536 1536 1536 1537 1538 1537 1538 1539 1539 1539 1539 1539 1539 1539 1538 1538
1537 1537 1537 1537 1537 1537 1537 1538 1538 1537 1537 1537 1536 1536 1536 1535 1535 1535 1534 1534 1534 1533 1533 1532 1532 1533 1533 1533 1533 1534 1534 1535 1535 1535 1536 1537 1537 1537 1537 1536 1536 1536 1536
1536 1536 1536 1536 1536 1536 1536 1536 1536 1536 1536 1536 1535 1535 1535 1534 1534 1533 1533 1532 1531 1531 1531 1530 1530 1530 1530 1530 1531 1531 1531 1532 1532 1533 1533 1534 1534 1534 1534 1534 1534 1534 1534
1535 1535 1535 1535 1536 1536 1535 1535 1535 1535 1535 1535 1534 1534 1534 1533 1533 1532 1531 1530 1530 1530 1529 1529 1528 1528 1528 1528 1528 1528 1529 1529 1530 1531 1531 1531 1532 1532 1532 1532 1531 1532 1531
1534 1534 1534 1534 1535 1535 1534 1534 1534 1534 1534 1534 1533 1533 1532 1532 1531 1531 1530 1530 1529 1528 1528 1527 1527 1526 1526 1526 1526 1526 1526 1527 1528 1528 1528 1529 1529 1529 1530 1530 1529 1529 1529
1533 1533 1533 1533 1533 1533 1533 1533 1533 1533 1533 1532 1532 1532 1531 1531 1530 1530 1529 1528 1528 1527 1526 1526 1526 1525 1525 1524 1524 1524 1525 1525 1525 1526 1526 1527 1527 1527 1528 1528 1528 1527 1527
1531 1531 1532 1532 1532 1532 1532 1532 1532 1532 1532 1531 1531 1530 1530 1530 1530 1529 1528 1527 1526 1526 1525 1525 1525 1524 1524 1524 1523 1523 1524 1524 1525 1525 1524 1524 1525 1525 1526 1526 1526 1525 1525
1529 1530 1530 1531 1531 1531 1531 1531 1531 1531 1530 1530 1530 1530 1529 1529 1528 1528 1527 1526 1525 1525 1525 1524 1524 1524 1523 1523 1523 1523 1523 1523 1523 1523 1523 1523 1524 1524 1524 1524 1524 1524 1524
1528 1529 1529 1530 1530 1530 1530 1529 1529 1529 1530 1530 1529 1529 1528 1528 1527 1527 1526 1525 1524 1524 1523 1523 1523 1523 1522 1522 1522 1522 1522 1522 1522 1522 1522 1522 1522 1522 1523 1522 1522 1522 1522
1527 1528 1528 1529 1529 1529 1529 1529 1529 1528 1529 1529 1529 1528 1527 1527 1526 1526 1525 1524 1523 1523 1523 1523 1522 1522 1522 1521 1521 1521 1521 1521 1521 1521 1521 1521 1521 1521 1521 1521 1521 1521 1521
1526 1527 1527 1527 1527 1528 1528 1528 1528 1528 1528 1528 1528 1527 1527 1526 1526 1525 1524 1524 1523 1523 1522 1522 1522 1522 1522 1521 1521 1520 1520 1521 1520 1520 1520 1520 1520 1520 1520 1520 1520 1520 1520
1524 1525 1526 1526 1526 1526 1526 1526 1527 1527 1527 1527 1527 1527 1526 1526 1525 1524 1524 1523 1523 1522 1522 1522 1522 1522 1521 1521 1520 1520 1520 1520 1520 1519 1519 1519 1520 1520 1520 1519 1519 1519 1519
1523 1523 1524 1524 1524 1524 1525 1525 1526 1526 1526 1526 1526 1526 1525 1525 1525 1524 1524 1523 1523 1522 1522 1521 1521 1521 1521 1520 1520 1520 1520 1519 1519 1519 1519 1519 1519 1519 1519 1519 1518 1518 1518
1522 1522 1523 1524 1523 1524 1524 1524 1525 1525 1525 1526 1525 1525 1525 1524 1524 1523 1523 1523 1522 1521 1521 1520 1520 1520 1519 1519 1519 1519 1519 1519 1519 1519 1519 1519 1519 1518 1518 1517 1517 1517 1516
1521 1521 1522 1523 1523 1523 1524 1524 1524 1525 1525 1525 1525 1525 1524 1524 1523 1523 1522 1522 1521 1520 1520 1519 1519 1519 1518 1518 1518 1518 1518 1518 1518 1518 1518 1518 1518 1517 1517 1516 1516 1516 1515
1519 1521 1521 1522 1522 1522 1523 1523 1523 1524 1524 1524 1524 1524 1524 1524 1523 1522 1522 1521 1520 1520 1519 1518 1518 1518 1518 1518 1517 1517 1517 1517 1517 1517 1517 1516 1516 1516 1515 1515 1515 1514 1513
1518 1519 1520 1521 1521 1522 1522 1522 1522 1523 1523 1523 1523 1523 1523 1523 1522 1522 1521 1520 1520 1519 1518 1518 1518 1517 1517 1517 1516 1516 1516 1516 1515 1515 1515 1514 1514 1514 1513 1513 1513 1512 1511
1517 1518 1519 1520 1520 1520 1521 1521 1522 1522 1522 1522 1522 1522 1522 1522 1521 1521 1520 1520 1519 1518 1518 1517 1517 1517 1516 1516 1516 1515 1515 1514 1513 1513 1513 1512 1512 1512 1511 1510 1510 1509 1509
1516 1517 1518 1519 1519 1520 1520 1521 1521 1521 1521 1521 1521 1521 1521 1521 1520 1520 1519 1519 1518 1517 1517 1517 1516 1516 1515 1515 1514 1514 1513 1512 1512 1511 1511 1510 1510 1509 1509 1508 1507 1507 1506
1514 1516 1517 1517 1518 1518 1519 1519 1520 1520 1520 1520 1520 1520 1520 1520 1519 1519 1518 1518 1517 1517 1516 1516 1515 1514 1514 1514 1513 1512 1511 1511 1510 1509 1508 1508 1507 1506 1506 1505 1504 1504 1503
1513 1514 1515 1516 1516 1517 1518 1518 1519 1519 1519 1519 1519 1519 1519 1519 1518 1518 1517 1517 1516 1516 1515 1514 1513 1513 1512 1512 1511 1510 1509 1508 1507 1506 1506 1505 1504 1504 1503 1502 1502 1501 1500
1512 1512 1513 1514 1515 1516 1517 1517 1518 1518 1518 1518 1518 1518 1518 1518 1517 1517 1516 1516 1515 1514 1514 1513 1512 1511 1510 1509 1508 1507 1506 1505 1505 1503 1503 1502 1501 1501 1500 1499 1498 1498 1497
1511 1512 1513 1514 1515 1515 1516 1516 1517 1517 1517 1517 1517 1517 1517 1517 1516 1515 1515 1514 1514 1513 1512 1511 1510 1509 1508 1507 1506 1505 1504 1503 1502 1501 1500 1499 1498 1498 1497 1496 1496 1495 1494
1510 1511 1512 1513 1514 1515 1515 1515 1516 1516 1516 1516 1516 1516 1516 1515 1515 1514 1514 1513 1512 1511 1510 1509 1508 1507 1506 1505 1504 1503 1502 1501 1500 1499 1498 1497 1496 1495 1494 1494 1493 1492 1491
1510 1510 1511 1512 1513 1514 1514 1514 1515 1515 1515 1515 1515 1515 1514 1514 1513 1513 1512 1511 1510 1509 1509 1507 1506 1505 1504 1503 1502 1501 1500 1499 1498 1497 1496 1494 1493 1492 1492 1491 1490 1489 1488
1509 1510 1511 1512 1512 1513 1513 1513 1514 1514 1514 1514 1513 1513 1513 1513 1512 1511 1511 1510 1509 1508 1507 1506 1505 1503 1502 1501 1500 1499 1498 1497 1495 1494 1493 1492 1491 1490 1489 1488 1487 1486 1485